EW7512 Athens GR current weather conditions

sailwx.info

Wind from 053

Air temperature 11.1° C
Dewpoint -3.8° C

Last reported at 2020-Jan-22 12:46 UTC.
Time now 2020-Jan-22 13:25 UTC

Location: N 38°09' E 023°52'.
View on Google Maps.

See reports from other nearby stations

  
Tides and Currents Weather Stations Pressure Air Temp Water Temp Dewpoint Dewpoint Depression Visibility Wind Speed Wind Dir Waves Ship Positions
date/time (UTC)wind fromknots sea level pressurealtimeterstation pressurevisibilityair tempwater tempwave heightnotes
2020-Jan-22 13:01 048 11.1
2020-Jan-22 12:46 053 11.1
2020-Jan-22 12:31 355 11.7
2020-Jan-22 12:16 355 11.7
2020-Jan-22 12:01 042 11.7
2020-Jan-22 11:45 005 11.1
2020-Jan-22 11:30 005 10.6
2020-Jan-22 11:15 069 10.6
2020-Jan-22 11:00 015 10.0
2020-Jan-22 10:45 046 10.0
2020-Jan-22 10:30 073 10.0
2020-Jan-22 10:15 346 9.4
2020-Jan-22 10:00 348 8.9
2020-Jan-22 09:45 068 8.9
2020-Jan-22 09:33 031 8.9
2020-Jan-22 09:17 056 8.3
2020-Jan-22 09:03 026 8.3
2020-Jan-22 08:46 072 7.8
2020-Jan-22 08:31 005 7.8
2020-Jan-22 08:17 029 7.2
2020-Jan-22 08:01 067 6.7
2020-Jan-22 07:45 069 6.7
2020-Jan-22 07:31 058 6.1
2020-Jan-22 07:15 028 5.6
2020-Jan-22 07:00 020 5.0
2020-Jan-22 06:45 028 4.4
2020-Jan-22 06:31 080 4.4
2020-Jan-22 06:16 005 4.4
2020-Jan-22 06:00 005 3.9
2020-Jan-22 05:45 046 3.9
2020-Jan-22 05:30 024 3.9
2020-Jan-22 05:16 360 4.4
2020-Jan-22 05:01 044 4.4
2020-Jan-22 04:45 009 3.9
2020-Jan-22 04:30 315 3.9
2020-Jan-22 04:15 096 3.9
2020-Jan-22 04:00 049 3.9
2020-Jan-22 03:45 009 3.9
2020-Jan-22 03:30 047 4.4
2020-Jan-22 03:15 355 4.4
2020-Jan-22 03:00 011 3.9
2020-Jan-22 02:45 340 3.9
2020-Jan-22 02:30 005 3.9
2020-Jan-22 02:15 355 3.9
2020-Jan-22 02:00 011 3.9
2020-Jan-22 01:47 011 4.4
2020-Jan-22 01:45 011 4.4
2020-Jan-22 01:32 342 4.4
2020-Jan-22 01:18 335 3.9
2020-Jan-22 01:02 009 3.9
2020-Jan-22 00:46 020 3.9
2020-Jan-22 00:31 005 3.9
2020-Jan-22 00:17 360 3.9
2020-Jan-22 00:02 328 3.9
2020-Jan-21 23:47 043 3.9
2020-Jan-21 23:32 017 3.9
2020-Jan-21 23:17 329 3.9
2020-Jan-21 23:02 010 3.9
2020-Jan-21 22:46 332 3.3
2020-Jan-21 22:31 029 3.3
2020-Jan-21 22:17 302 3.3
2020-Jan-21 22:01 355 3.3
2020-Jan-21 21:46 044 2.8
2020-Jan-21 21:31 258 2.8
2020-Jan-21 21:16 158 2.8
2020-Jan-21 21:00 163 2.8
2020-Jan-21 20:46 163 2.8
2020-Jan-21 20:31 165 2.8
2020-Jan-21 20:16 164 2.8
2020-Jan-21 20:00 073 2.8
2020-Jan-21 19:46 073 3.3
2020-Jan-21 19:31 355 3.3
2020-Jan-21 19:15 360 3.3
2020-Jan-21 19:01 313 3.3
2020-Jan-21 18:46 027 3.3
2020-Jan-21 18:30 348 3.3
2020-Jan-21 18:15 355 3.3
2020-Jan-21 18:00 326 3.3
2020-Jan-21 17:45 326 3.3
2020-Jan-21 17:31 350 3.9
2020-Jan-21 17:15 347 3.9
2020-Jan-21 17:00 019 3.9
2020-Jan-21 16:45 009 3.9
2020-Jan-21 16:30 360 3.9
2020-Jan-21 16:15 030 3.9
2020-Jan-21 16:00 028 3.9
2020-Jan-21 15:45 005 3.9
2020-Jan-21 15:30 347 3.9
2020-Jan-21 15:15 048 4.4
2020-Jan-21 15:00 061 4.4
2020-Jan-21 14:45 022 4.4
2020-Jan-21 14:30 027 5.0
2020-Jan-21 14:15 046 5.0
2020-Jan-21 14:00 355 5.0
2020-Jan-21 13:45 009 5.0
2020-Jan-21 13:30 019 5.0
2020-Jan-21 13:15 355 5.6
2020-Jan-21 13:00 348 5.6
2020-Jan-21 12:45 355 5.0
2020-Jan-21 12:30 019 5.0
2020-Jan-21 12:15 009 4.4
2020-Jan-21 12:00 036 4.4
2020-Jan-21 11:45 027 4.4
2020-Jan-21 11:17 053 4.4
2020-Jan-21 11:02 091 4.4
2020-Jan-21 10:46 355 4.4
2020-Jan-21 10:16 094 4.4
2020-Jan-21 10:05 054 4.4
2020-Jan-21 09:47 055 4.4
2020-Jan-21 09:16 042 4.4
2020-Jan-21 09:02 350 5.0
2020-Jan-21 08:47 340 5.0
2020-Jan-21 08:17 022 5.6
2020-Jan-21 08:01 079 5.0
2020-Jan-21 07:47 063 4.4
2020-Jan-21 07:16 050 0 gusting 13 4.4
2020-Jan-21 07:00 043 3.9
2020-Jan-21 06:46 037 3.9
2020-Jan-21 06:15 061 3.9
2020-Jan-21 06:01 052 2 gusting 13 3.9
2020-Jan-21 05:46 082 0 gusting 8 3.9
2020-Jan-21 05:16 049 3.9
2020-Jan-21 05:01 065 0 gusting 7 3.9
2020-Jan-21 04:45 074 1 gusting 10 3.9
2020-Jan-21 04:15 071 3.9
2020-Jan-21 04:01 051 0 gusting 11 3.9
2020-Jan-21 03:45 080 3.9
2020-Jan-21 03:16 036 4.4
2020-Jan-21 03:00 032 4.4
2020-Jan-21 02:45 019 1 gusting 13 4.4
2020-Jan-21 02:15 079 4.4
2020-Jan-21 02:00 360 4.4
2020-Jan-21 01:45 015 4.4
2020-Jan-21 01:30 057 4.4
2020-Jan-21 01:15 092 4.4
2020-Jan-21 00:45 009 4.4
2020-Jan-21 00:30 050 4.4
2020-Jan-21 00:15 069 4.4
2020-Jan-20 23:45 066 4.4
2020-Jan-20 23:30 011 4.4
2020-Jan-20 23:15 360 4.4
2020-Jan-20 22:45 005 4.4
2020-Jan-20 22:32 043 4.4
2020-Jan-20 22:16 043 4.4
2020-Jan-20 21:45 026 4.4
2020-Jan-20 21:30 043 4.4
2020-Jan-20 21:15 057 4.4
2020-Jan-20 20:47 055 4.4
2020-Jan-20 20:33 009 3.9
2020-Jan-20 20:16 317 3.9
2020-Jan-20 19:47 005 3.9
2020-Jan-20 19:32 045 3.9
2020-Jan-20 19:16 049 3.9
2020-Jan-20 18:47 344 3.9
2020-Jan-20 18:34 030 3.9
2020-Jan-20 18:17 063 3.9
2020-Jan-20 17:48 360 3.9
2020-Jan-20 17:32 013 3.9
2020-Jan-20 17:16 345 3.9
2020-Jan-20 16:46 051 3.9
2020-Jan-20 16:32 029 3.9
2020-Jan-20 16:16 060 3.9
2020-Jan-20 15:46 050 3.9
2020-Jan-20 15:32 062 4.4
2020-Jan-20 15:16 056 4.4
2020-Jan-20 14:46 052 4.4
2020-Jan-20 14:31 038 5.0
2020-Jan-20 14:16 051 5.0
2020-Jan-20 13:46 050 5.0
2020-Jan-20 13:32 071 5.6
2020-Jan-20 13:16 040 5.0